Time,TemperatureF,DewpointF,PressureIn,WindDirection,WindDirectionDegrees,WindSpeedMPH,WindSpeedGustMPH,Humidity,HourlyPrecipIn,Conditions,Clouds,dailyrainin,SoftwareType,DateUTC
2013-05-02 00:04:00,46.2,28.1,30.59,East,92,0.0,0.0,49,0.00,,,0.00,VWS V12.08,2013-05-02 04:04:00,
2013-05-02 00:05:00,46.0,28.0,30.59,East,92,0.0,0.0,49,0.00,,,0.00,VWS V12.08,2013-05-02 04:05:00,
2013-05-02 00:11:00,46.0,28.0,30.59,East,92,0.0,0.0,49,0.00,,,0.00,VWS V12.08,2013-05-02 04:11:00,
2013-05-02 00:16:00,45.9,27.8,30.59,East,92,0.0,0.0,49,0.00,,,0.00,VWS V12.08,2013-05-02 04:16:00,
2013-05-02 00:21:00,45.9,27.8,30.59,East,92,0.0,0.0,49,0.00,,,0.00,VWS V12.08,2013-05-02 04:21:00,
2013-05-02 00:26:00,45.9,27.8,30.59,East,92,0.0,0.0,49,0.00,,,0.00,VWS V12.08,2013-05-02 04:26:00,
2013-05-02 00:31:00,45.7,27.6,30.59,East,92,0.0,0.0,49,0.00,,,0.00,VWS V12.08,2013-05-02 04:31:00,
2013-05-02 00:36:00,45.7,27.6,30.59,East,92,0.0,0.0,49,0.00,,,0.00,VWS V12.08,2013-05-02 04:36:00,
2013-05-02 00:41:00,45.5,27.5,30.59,East,92,0.0,0.0,49,0.00,,,0.00,VWS V12.08,2013-05-02 04:41:00,
2013-05-02 00:46:00,45.3,27.3,30.59,East,92,0.0,0.0,49,0.00,,,0.00,VWS V12.08,2013-05-02 04:46:00,
2013-05-02 00:56:00,45.3,27.3,30.59,East,92,0.0,0.0,49,0.00,,,0.00,VWS V12.08,2013-05-02 04:56:00,
2013-05-02 01:04:00,45.3,27.3,30.59,East,92,0.0,0.0,49,0.00,,,0.00,VWS V12.08,2013-05-02 05:04:00,
2013-05-02 01:11:00,45.1,27.1,30.59,East,92,0.0,0.0,49,0.00,,,0.00,VWS V12.08,2013-05-02 05:11:00,
2013-05-02 01:16:00,45.1,27.1,30.59,East,92,0.0,0.0,49,0.00,,,0.00,VWS V12.08,2013-05-02 05:16:00,
2013-05-02 01:26:00,45.1,27.1,30.59,East,92,0.0,0.0,49,0.00,,,0.00,VWS V12.08,2013-05-02 05:26:00,
2013-05-02 01:35:00,45.0,27.0,30.59,East,92,0.0,0.0,49,0.00,,,0.00,VWS V12.08,2013-05-02 05:35:00,
2013-05-02 01:40:00,45.0,27.0,30.59,East,92,0.0,0.0,49,0.00,,,0.00,VWS V12.08,2013-05-02 05:40:00,
2013-05-02 01:45:00,45.0,27.0,30.59,East,92,0.0,0.0,49,0.00,,,0.00,VWS V12.08,2013-05-02 05:45:00,
2013-05-02 01:55:00,44.8,26.8,30.59,East,92,0.0,0.0,49,0.00,,,0.00,VWS V12.08,2013-05-02 05:55:00,
2013-05-02 02:04:00,44.8,26.8,30.59,East,92,0.0,0.0,49,0.00,,,0.00,VWS V12.08,2013-05-02 06:04:00,
2013-05-02 02:10:00,44.6,26.6,30.56,East,92,0.0,0.0,49,0.00,,,0.00,VWS V12.08,2013-05-02 06:10:00,
2013-05-02 02:15:00,44.4,27.0,30.56,East,92,0.0,0.0,50,0.00,,,0.00,VWS V12.08,2013-05-02 06:15:00,
2013-05-02 02:25:00,44.2,26.8,30.56,East,92,0.0,0.0,50,0.00,,,0.00,VWS V12.08,2013-05-02 06:25:00,
2013-05-02 02:31:00,44.2,26.8,30.56,East,92,0.0,0.0,50,0.00,,,0.00,VWS V12.08,2013-05-02 06:31:00,
2013-05-02 02:40:00,43.9,26.5,30.56,East,92,0.0,0.0,50,0.00,,,0.00,VWS V12.08,2013-05-02 06:40:00,
2013-05-02 02:45:00,43.7,26.3,30.56,East,92,0.0,0.0,50,0.00,,,0.00,VWS V12.08,2013-05-02 06:45:00,
2013-05-02 02:55:00,43.5,26.1,30.56,East,92,0.0,0.0,50,0.00,,,0.00,VWS V12.08,2013-05-02 06:55:00,
2013-05-02 03:04:00,43.5,26.1,30.56,East,92,0.0,0.0,50,0.00,,,0.00,VWS V12.08,2013-05-02 07:04:00,
2013-05-02 03:10:00,43.5,26.1,30.56,East,92,0.0,0.0,50,0.00,,,0.00,VWS V12.08,2013-05-02 07:10:00,
2013-05-02 03:16:00,43.7,26.3,30.56,East,92,0.0,0.0,50,0.00,,,0.00,VWS V12.08,2013-05-02 07:16:00,
2013-05-02 03:25:00,43.7,26.3,30.56,East,92,0.0,0.0,50,0.00,,,0.00,VWS V12.08,2013-05-02 07:25:00,
2013-05-02 03:31:00,43.7,26.3,30.56,East,92,0.0,0.0,50,0.00,,,0.00,VWS V12.08,2013-05-02 07:31:00,
2013-05-02 03:40:00,43.5,26.1,30.56,East,92,0.0,0.0,50,0.00,,,0.00,VWS V12.08,2013-05-02 07:40:00,
2013-05-02 03:46:00,43.5,26.1,30.56,East,92,0.0,0.0,50,0.00,,,0.00,VWS V12.08,2013-05-02 07:46:00,
2013-05-02 03:55:00,43.5,26.1,30.56,East,92,0.0,0.0,50,0.00,,,0.00,VWS V12.08,2013-05-02 07:55:00,
2013-05-02 04:04:00,43.7,26.3,30.56,East,92,0.0,0.0,50,0.00,,,0.00,VWS V12.08,2013-05-02 08:04:00,
2013-05-02 04:10:00,43.9,26.5,30.56,East,92,0.0,2.2,50,0.00,,,0.00,VWS V12.08,2013-05-02 08:10:00,
2013-05-02 04:18:00,44.1,27.1,30.56,East,92,0.0,2.2,51,0.00,,,0.00,VWS V12.08,2013-05-02 08:18:00,
2013-05-02 04:25:00,44.1,27.1,30.56,East,92,0.0,0.0,51,0.00,,,0.00,VWS V12.08,2013-05-02 08:25:00,
2013-05-02 04:31:00,44.1,27.1,30.56,East,92,0.0,0.0,51,0.00,,,0.00,VWS V12.08,2013-05-02 08:31:00,
2013-05-02 04:40:00,44.2,27.3,30.56,East,92,2.2,2.7,51,0.00,,,0.00,VWS V12.08,2013-05-02 08:40:00,
2013-05-02 04:46:00,44.2,27.3,30.56,East,92,0.0,2.7,51,0.00,,,0.00,VWS V12.08,2013-05-02 08:46:00,
2013-05-02 04:55:00,44.4,27.4,30.56,East,92,0.0,2.7,51,0.00,,,0.00,VWS V12.08,2013-05-02 08:55:00,
2013-05-02 05:04:00,44.6,27.6,30.56,East,92,0.0,2.7,51,0.00,,,0.00,VWS V12.08,2013-05-02 09:04:00,
2013-05-02 05:10:00,44.8,27.8,30.56,East,92,0.0,0.0,51,0.00,,,0.00,VWS V12.08,2013-05-02 09:10:00,
2013-05-02 05:16:00,45.0,27.9,30.56,NW,310,0.0,0.0,51,0.00,,,0.00,VWS V12.08,2013-05-02 09:16:00,
2013-05-02 05:25:00,45.1,28.1,30.56,NNW,346,0.0,0.0,51,0.00,,,0.00,VWS V12.08,2013-05-02 09:25:00,
2013-05-02 05:31:00,45.1,28.1,30.56,NNW,346,0.0,0.0,51,0.00,,,0.00,VWS V12.08,2013-05-02 09:31:00,
2013-05-02 05:40:00,45.3,28.8,30.56,NNW,346,0.0,0.0,52,0.00,,,0.00,VWS V12.08,2013-05-02 09:40:00,
2013-05-02 05:46:00,45.3,28.8,30.56,NNW,346,0.0,0.0,52,0.00,,,0.00,VWS V12.08,2013-05-02 09:46:00,
2013-05-02 05:55:00,45.5,28.9,30.56,NNW,345,0.0,0.0,52,0.00,,,0.00,VWS V12.08,2013-05-02 09:55:00,
2013-05-02 06:04:00,45.5,28.9,30.56,NNW,346,0.0,0.0,52,0.00,,,0.00,VWS V12.08,2013-05-02 10:04:00,
2013-05-02 06:10:00,45.7,29.1,30.56,NNW,346,0.0,0.0,52,0.00,,,0.00,VWS V12.08,2013-05-02 10:10:00,
2013-05-02 06:16:00,45.7,29.1,30.56,NNW,345,0.0,0.0,52,0.00,,,0.00,VWS V12.08,2013-05-02 10:16:00,
2013-05-02 06:25:00,45.9,29.2,30.56,NNW,346,0.0,0.0,52,0.00,,,0.00,VWS V12.08,2013-05-02 10:25:00,
2013-05-02 06:31:00,45.9,29.2,30.56,NNW,346,0.0,0.0,52,0.00,,,0.00,VWS V12.08,2013-05-02 10:31:00,
2013-05-02 06:41:00,45.9,29.7,30.56,NNW,346,0.0,0.0,53,0.00,,,0.00,VWS V12.08,2013-05-02 10:41:00,
2013-05-02 06:46:00,46.0,29.9,30.56,NNW,346,0.0,0.0,53,0.00,,,0.00,VWS V12.08,2013-05-02 10:46:00,
2013-05-02 06:56:00,46.0,29.9,30.56,NNW,346,0.0,0.0,53,0.00,,,0.00,VWS V12.08,2013-05-02 10:56:00,
2013-05-02 07:04:00,46.2,30.0,30.56,NNW,346,0.0,0.0,53,0.00,,,0.00,VWS V12.08,2013-05-02 11:04:00,
2013-05-02 07:11:00,46.4,30.2,30.56,NNW,346,0.0,2.2,53,0.00,,,0.00,VWS V12.08,2013-05-02 11:11:00,
2013-05-02 07:16:00,46.8,30.5,30.56,NNW,342,0.0,2.2,53,0.00,,,0.00,VWS V12.08,2013-05-02 11:16:00,
2013-05-02 07:26:00,47.3,31.5,30.56,NW,312,0.0,0.0,54,0.00,,,0.00,VWS V12.08,2013-05-02 11:26:00,
2013-05-02 07:31:00,47.5,32.1,30.56,NW,312,0.0,0.0,55,0.00,,,0.00,VWS V12.08,2013-05-02 11:31:00,
2013-05-02 07:41:00,48.2,32.8,30.56,NNW,342,2.7,3.6,55,0.00,,,0.00,VWS V12.08,2013-05-02 11:41:00,
2013-05-02 07:46:00,48.6,33.1,30.56,North,3,0.0,3.1,55,0.00,,,0.00,VWS V12.08,2013-05-02 11:46:00,
2013-05-02 07:56:00,49.1,34.1,30.56,NW,324,0.0,3.1,56,0.00,,,0.00,VWS V12.08,2013-05-02 11:56:00,
2013-05-02 08:04:00,49.5,34.4,30.56,NNW,327,0.0,3.1,56,0.00,,,0.00,VWS V12.08,2013-05-02 12:04:00,
2013-05-02 08:11:00,50.0,34.9,30.56,WNW,302,3.1,3.6,56,0.00,,,0.00,VWS V12.08,2013-05-02 12:11:00,
2013-05-02 08:21:00,50.5,35.9,30.56,NNW,345,2.7,4.0,57,0.00,,,0.00,VWS V12.08,2013-05-02 12:21:00,
2013-05-02 08:30:00,51.1,36.4,30.56,NNW,330,3.1,4.9,57,0.00,,,0.00,VWS V12.08,2013-05-02 12:30:00,
2013-05-02 08:40:00,51.8,37.5,30.56,NNW,344,0.0,4.9,58,0.00,,,0.00,VWS V12.08,2013-05-02 12:40:00,
2013-05-02 08:45:00,52.2,37.8,30.56,North,353,2.2,3.1,58,0.00,,,0.00,VWS V12.08,2013-05-02 12:45:00,
2013-05-02 08:55:00,53.4,40.3,30.56,SSW,202,0.0,3.1,61,0.00,,,0.00,VWS V12.08,2013-05-02 12:55:00,
2013-05-02 09:03:00,54.1,40.6,30.56,NNW,343,0.0,3.6,60,0.00,,,0.00,VWS V12.08,2013-05-02 13:03:00,
2013-05-02 09:10:00,55.6,41.9,30.56,West,269,0.0,3.6,60,0.00,,,0.00,VWS V12.08,2013-05-02 13:10:00,
2013-05-02 09:15:00,56.3,42.6,30.56,North,349,0.0,3.6,60,0.00,,,0.00,VWS V12.08,2013-05-02 13:15:00,
2013-05-02 09:25:00,57.6,43.4,30.56,NNW,339,3.6,4.0,59,0.00,,,0.00,VWS V12.08,2013-05-02 13:25:00,
2013-05-02 09:30:00,58.3,43.6,30.56,North,350,2.7,4.0,58,0.00,,,0.00,VWS V12.08,2013-05-02 13:30:00,
2013-05-02 09:40:00,59.2,43.5,30.56,NW,320,3.1,4.0,56,0.00,,,0.00,VWS V12.08,2013-05-02 13:40:00,
2013-05-02 09:45:00,59.7,43.5,30.56,NNW,348,3.1,3.1,55,0.00,,,0.00,VWS V12.08,2013-05-02 13:45:00,
2013-05-02 09:55:00,61.2,43.9,30.56,West,275,0.0,4.0,53,0.00,,,0.00,VWS V12.08,2013-05-02 13:55:00,
2013-05-02 10:03:00,61.7,42.4,30.56,NW,309,0.0,4.0,49,0.00,,,0.00,VWS V12.08,2013-05-02 14:03:00,
2013-05-02 10:10:00,61.9,40.9,30.56,NNW,335,0.0,3.1,46,0.00,,,0.00,VWS V12.08,2013-05-02 14:10:00,
2013-05-02 10:16:00,61.9,40.3,30.56,WSW,237,0.0,3.1,45,0.00,,,0.00,VWS V12.08,2013-05-02 14:16:00,
2013-05-02 10:25:00,62.4,40.2,30.56,North,353,0.0,0.0,44,0.00,,,0.00,VWS V12.08,2013-05-02 14:25:00,
2013-05-02 10:31:00,62.8,38.8,30.56,East,96,0.0,3.6,41,0.00,,,0.00,VWS V12.08,2013-05-02 14:31:00,
2013-05-02 10:40:00,63.9,37.8,30.56,East,79,0.0,3.6,38,0.00,,,0.00,VWS V12.08,2013-05-02 14:40:00,
2013-05-02 10:46:00,65.1,37.5,30.56,WSW,253,0.0,4.0,36,0.00,,,0.00,VWS V12.08,2013-05-02 14:46:00,
2013-05-02 10:55:00,66.2,38.5,30.56,South,180,0.0,4.0,36,0.00,,,0.00,VWS V12.08,2013-05-02 14:55:00,
2013-05-02 11:04:00,67.1,38.6,30.56,North,0,0.0,4.0,35,0.00,,,0.00,VWS V12.08,2013-05-02 15:04:00,
2013-05-02 11:10:00,67.3,38.0,30.56,NE,42,2.7,4.0,34,0.00,,,0.00,VWS V12.08,2013-05-02 15:10:00,
2013-05-02 11:16:00,67.5,38.1,30.56,ESE,114,0.0,4.0,34,0.00,,,0.00,VWS V12.08,2013-05-02 15:16:00,
2013-05-02 11:25:00,68.7,38.5,30.53,SSE,159,3.1,3.6,33,0.00,,,0.00,VWS V12.08,2013-05-02 15:25:00,
2013-05-02 11:31:00,69.1,38.8,30.53,SSE,149,0.0,3.6,33,0.00,,,0.00,VWS V12.08,2013-05-02 15:31:00,
2013-05-02 11:40:00,70.9,39.6,30.53,ENE,73,0.0,3.6,32,0.00,,,0.00,VWS V12.08,2013-05-02 15:40:00,
2013-05-02 11:46:00,71.2,39.1,30.53,ENE,78,0.0,0.0,31,0.00,,,0.00,VWS V12.08,2013-05-02 15:46:00,
2013-05-02 11:55:00,71.2,37.4,30.53,ENE,75,0.0,3.6,29,0.00,,,0.00,VWS V12.08,2013-05-02 15:55:00,
2013-05-02 12:04:00,71.2,37.4,30.53,ENE,77,0.0,3.6,29,0.00,,,0.00,VWS V12.08,2013-05-02 16:04:00,
2013-05-02 12:10:00,71.6,32.9,30.53,East,79,0.0,4.9,24,0.00,,,0.00,VWS V12.08,2013-05-02 16:10:00,
2013-05-02 12:16:00,71.2,31.6,30.53,SE,130,0.0,4.9,23,0.00,,,0.00,VWS V12.08,2013-05-02 16:16:00,
2013-05-02 12:25:00,70.9,32.3,30.53,East,93,2.2,2.7,24,0.00,,,0.00,VWS V12.08,2013-05-02 16:25:00,
2013-05-02 12:31:00,70.7,32.2,30.53,East,82,0.0,2.7,24,0.00,,,0.00,VWS V12.08,2013-05-02 16:31:00,
2013-05-02 12:40:00,70.9,32.3,30.53,ESE,103,0.0,2.7,24,0.00,,,0.00,VWS V12.08,2013-05-02 16:40:00,
2013-05-02 12:46:00,71.1,32.5,30.53,SE,146,0.0,2.7,24,0.00,,,0.00,VWS V12.08,2013-05-02 16:46:00,
2013-05-02 12:55:00,71.1,31.4,30.53,SE,132,0.0,5.4,23,0.00,,,0.00,VWS V12.08,2013-05-02 16:55:00,
2013-05-02 13:04:00,70.9,31.3,30.53,SE,124,0.0,5.4,23,0.00,,,0.00,VWS V12.08,2013-05-02 17:04:00,
2013-05-02 13:10:00,70.7,30.0,30.53,ENE,69,0.0,0.0,22,0.00,,,0.00,VWS V12.08,2013-05-02 17:10:00,
2013-05-02 13:16:00,70.7,30.0,30.53,East,95,0.0,2.2,22,0.00,,,0.00,VWS V12.08,2013-05-02 17:16:00,
2013-05-02 13:25:00,70.2,29.6,30.53,SE,127,0.0,2.2,22,0.00,,,0.00,VWS V12.08,2013-05-02 17:25:00,
2013-05-02 13:31:00,70.2,29.6,30.53,East,82,0.0,2.7,22,0.00,,,0.00,VWS V12.08,2013-05-02 17:31:00,
2013-05-02 13:41:00,69.8,29.3,30.53,East,98,0.0,2.7,22,0.00,,,0.00,VWS V12.08,2013-05-02 17:41:00,
2013-05-02 13:46:00,69.6,30.2,30.53,SE,126,0.0,4.9,23,0.00,,,0.00,VWS V12.08,2013-05-02 17:46:00,
2013-05-02 13:55:00,69.3,29.9,30.53,ENE,74,0.0,4.9,23,0.00,,,0.00,VWS V12.08,2013-05-02 17:55:00,
2013-05-02 14:04:00,69.1,29.8,30.53,East,95,0.0,4.9,23,0.00,,,0.00,VWS V12.08,2013-05-02 18:04:00,
2013-05-02 14:11:00,68.5,29.3,30.53,SE,125,0.0,3.1,23,0.00,,,0.00,VWS V12.08,2013-05-02 18:11:00,
2013-05-02 14:16:00,68.0,28.9,30.53,SE,133,0.0,3.1,23,0.00,,,0.00,VWS V12.08,2013-05-02 18:16:00,
2013-05-02 14:26:00,67.1,27.0,30.53,SE,146,0.0,0.0,22,0.00,,,0.00,VWS V12.08,2013-05-02 18:26:00,
2013-05-02 14:31:00,66.6,24.3,30.53,East,87,0.0,3.1,20,0.00,,,0.00,VWS V12.08,2013-05-02 18:31:00,
2013-05-02 14:41:00,65.3,26.6,30.53,East,86,0.0,4.9,23,0.00,,,0.00,VWS V12.08,2013-05-02 18:41:00,
2013-05-02 14:46:00,64.8,26.1,30.53,ESE,110,0.0,3.1,23,0.00,,,0.00,VWS V12.08,2013-05-02 18:46:00,
2013-05-02 14:56:00,64.4,26.9,30.53,East,93,0.0,3.1,24,0.00,,,0.00,VWS V12.08,2013-05-02 18:56:00,
2013-05-02 15:04:00,64.2,26.7,30.53,ENE,74,3.1,3.1,24,0.00,,,0.00,VWS V12.08,2013-05-02 19:04:00,
2013-05-02 15:11:00,63.5,27.1,30.53,ENE,74,0.0,3.6,25,0.00,,,0.00,VWS V12.08,2013-05-02 19:11:00,
2013-05-02 15:16:00,63.3,26.9,30.53,ENE,68,0.0,3.6,25,0.00,,,0.00,VWS V12.08,2013-05-02 19:16:00,
2013-05-02 15:21:00,63.0,27.6,30.53,North,6,0.0,3.6,26,0.00,,,0.00,VWS V12.08,2013-05-02 19:21:00,
2013-05-02 15:31:00,62.2,27.9,30.53,East,81,0.0,4.9,27,0.00,,,0.00,VWS V12.08,2013-05-02 19:31:00,
2013-05-02 15:40:00,61.7,28.3,30.53,ESE,112,2.2,5.4,28,0.00,,,0.00,VWS V12.08,2013-05-02 19:40:00,
2013-05-02 15:45:00,61.2,29.5,30.53,ESE,122,2.2,3.6,30,0.00,,,0.00,VWS V12.08,2013-05-02 19:45:00,
2013-05-02 15:55:00,60.4,30.5,30.53,ENE,72,2.2,4.0,32,0.00,,,0.00,VWS V12.08,2013-05-02 19:55:00,
2013-05-02 16:04:00,60.4,31.2,30.53,ESE,105,0.0,4.0,33,0.00,,,0.00,VWS V12.08,2013-05-02 20:04:00,
2013-05-02 16:10:00,60.4,32.0,30.53,ESE,112,0.0,4.9,34,0.00,,,0.00,VWS V12.08,2013-05-02 20:10:00,
2013-05-02 16:15:00,60.1,31.6,30.53,ENE,65,0.0,4.9,34,0.00,,,0.00,VWS V12.08,2013-05-02 20:15:00,
2013-05-02 16:21:00,59.9,31.5,30.53,East,88,0.0,2.7,34,0.00,,,0.00,VWS V12.08,2013-05-02 20:21:00,
2013-05-02 16:31:00,59.7,31.3,30.53,East,96,0.0,3.6,34,0.00,,,0.00,VWS V12.08,2013-05-02 20:31:00,
2013-05-02 16:40:00,59.7,31.3,30.53,East,82,0.0,5.4,34,0.00,,,0.00,VWS V12.08,2013-05-02 20:40:00,
2013-05-02 16:45:00,59.9,31.5,30.53,ESE,104,0.0,0.0,34,0.00,,,0.00,VWS V12.08,2013-05-02 20:45:00,
2013-05-02 16:55:00,59.4,30.3,30.53,East,91,0.0,3.6,33,0.00,,,0.00,VWS V12.08,2013-05-02 20:55:00,
2013-05-02 17:03:00,59.2,30.9,30.53,East,99,0.0,3.6,34,0.00,,,0.00,VWS V12.08,2013-05-02 21:03:00,
2013-05-02 17:10:00,58.8,31.2,30.53,East,89,5.4,5.4,35,0.00,,,0.00,VWS V12.08,2013-05-02 21:10:00,
2013-05-02 17:16:00,58.6,30.4,30.53,East,91,0.0,5.4,34,0.00,,,0.00,VWS V12.08,2013-05-02 21:16:00,
2013-05-02 17:25:00,57.7,30.3,30.53,NE,54,2.2,3.6,35,0.00,,,0.00,VWS V12.08,2013-05-02 21:25:00,
2013-05-02 17:31:00,56.8,29.5,30.53,East,87,2.2,3.6,35,0.00,,,0.00,VWS V12.08,2013-05-02 21:31:00,
2013-05-02 17:40:00,55.8,29.2,30.53,ENE,77,0.0,4.9,36,0.00,,,0.00,VWS V12.08,2013-05-02 21:40:00,
2013-05-02 17:46:00,55.2,29.4,30.53,SE,140,2.2,4.0,37,0.00,,,0.00,VWS V12.08,2013-05-02 21:46:00,
2013-05-02 17:55:00,54.7,28.9,30.53,ENE,69,0.0,4.5,37,0.00,,,0.00,VWS V12.08,2013-05-02 21:55:00,
2013-05-02 18:04:00,54.5,28.8,30.53,NE,40,3.6,4.5,37,0.00,,,0.00,VWS V12.08,2013-05-02 22:04:00,
2013-05-02 18:10:00,54.5,28.8,30.53,ENE,66,0.0,3.6,37,0.00,,,0.00,VWS V12.08,2013-05-02 22:10:00,
2013-05-02 18:16:00,54.1,29.1,30.53,ESE,111,2.7,4.9,38,0.00,,,0.00,VWS V12.08,2013-05-02 22:16:00,
2013-05-02 18:25:00,53.8,28.8,30.53,ENE,78,0.0,2.7,38,0.00,,,0.00,VWS V12.08,2013-05-02 22:25:00,
2013-05-02 18:31:00,53.4,28.5,30.53,NE,34,0.0,3.6,38,0.00,,,0.00,VWS V12.08,2013-05-02 22:31:00,
2013-05-02 18:40:00,53.2,28.9,30.53,SE,125,0.0,4.9,39,0.00,,,0.00,VWS V12.08,2013-05-02 22:40:00,
2013-05-02 18:46:00,53.1,28.8,30.53,ENE,68,0.0,4.0,39,0.00,,,0.00,VWS V12.08,2013-05-02 22:46:00,
2013-05-02 18:55:00,52.9,28.6,30.53,NNE,26,0.0,4.0,39,0.00,,,0.00,VWS V12.08,2013-05-02 22:55:00,
2013-05-02 19:04:00,52.7,28.5,30.53,NNW,328,2.7,4.0,39,0.00,,,0.00,VWS V12.08,2013-05-02 23:04:00,
2013-05-02 19:10:00,52.3,28.1,30.56,NNW,340,0.0,4.9,39,0.00,,,0.00,VWS V12.08,2013-05-02 23:10:00,
2013-05-02 19:16:00,52.2,28.6,30.56,NE,45,0.0,4.9,40,0.00,,,0.00,VWS V12.08,2013-05-02 23:16:00,
2013-05-02 19:25:00,51.8,28.3,30.56,East,99,2.7,3.6,40,0.00,,,0.00,VWS V12.08,2013-05-02 23:25:00,
2013-05-02 19:31:00,51.8,28.3,30.56,North,0,0.0,3.6,40,0.00,,,0.00,VWS V12.08,2013-05-02 23:31:00,
2013-05-02 19:40:00,51.6,28.7,30.56,ESE,109,0.0,4.9,41,0.00,,,0.00,VWS V12.08,2013-05-02 23:40:00,
2013-05-02 19:46:00,51.6,28.7,30.56,North,4,0.0,5.4,41,0.00,,,0.00,VWS V12.08,2013-05-02 23:46:00,
2013-05-02 19:55:00,51.4,28.5,30.56,ENE,71,2.7,5.4,41,0.00,,,0.00,VWS V12.08,2013-05-02 23:55:00,
2013-05-02 20:04:00,51.3,29.0,30.56,ESE,114,0.0,5.4,42,0.00,,,0.00,VWS V12.08,2013-05-03 00:04:00,
2013-05-02 20:10:00,51.1,28.8,30.56,ESE,109,0.0,2.2,42,0.00,,,0.00,VWS V12.08,2013-05-03 00:10:00,
2013-05-02 20:16:00,50.9,28.6,30.56,SE,130,0.0,2.2,42,0.00,,,0.00,VWS V12.08,2013-05-03 00:16:00,
2013-05-02 20:21:00,50.9,28.6,30.56,East,97,0.0,0.0,42,0.00,,,0.00,VWS V12.08,2013-05-03 00:21:00,
2013-05-02 20:31:00,50.7,28.5,30.56,SE,145,3.1,3.1,42,0.00,,,0.00,VWS V12.08,2013-05-03 00:31:00,
2013-05-02 20:41:00,50.5,28.3,30.56,ENE,70,0.0,3.1,42,0.00,,,0.00,VWS V12.08,2013-05-03 00:41:00,
2013-05-02 20:46:00,50.5,28.3,30.56,ENE,72,0.0,0.0,42,0.00,,,0.00,VWS V12.08,2013-05-03 00:46:00,
2013-05-02 20:55:00,50.4,28.2,30.56,ENE,78,0.0,0.0,42,0.00,,,0.00,VWS V12.08,2013-05-03 00:55:00,
2013-05-02 21:04:00,50.2,28.0,30.56,NNE,28,0.0,0.0,42,0.00,,,0.00,VWS V12.08,2013-05-03 01:04:00,
2013-05-02 21:11:00,50.0,27.8,30.56,ESE,119,0.0,0.0,42,0.00,,,0.00,VWS V12.08,2013-05-03 01:11:00,
2013-05-02 21:16:00,50.0,27.8,30.56,East,93,0.0,0.0,42,0.00,,,0.00,VWS V12.08,2013-05-03 01:16:00,
2013-05-02 21:26:00,49.8,28.2,30.56,SSW,203,0.0,0.0,43,0.00,,,0.00,VWS V12.08,2013-05-03 01:26:00,
2013-05-02 21:31:00,49.6,28.1,30.56,SSW,203,0.0,0.0,43,0.00,,,0.00,VWS V12.08,2013-05-03 01:31:00,
2013-05-02 21:41:00,49.6,28.1,30.56,SSW,203,0.0,0.0,43,0.00,,,0.00,VWS V12.08,2013-05-03 01:41:00,
2013-05-02 21:46:00,49.6,28.1,30.56,SSW,203,0.0,0.0,43,0.00,,,0.00,VWS V12.08,2013-05-03 01:46:00,
2013-05-02 21:56:00,49.5,27.9,30.56,SSW,203,0.0,0.0,43,0.00,,,0.00,VWS V12.08,2013-05-03 01:56:00,
2013-05-02 22:04:00,49.5,28.5,30.56,SSW,203,0.0,0.0,44,0.00,,,0.00,VWS V12.08,2013-05-03 02:04:00,
2013-05-02 22:11:00,49.3,28.3,30.56,SSW,203,0.0,0.0,44,0.00,,,0.00,VWS V12.08,2013-05-03 02:11:00,
2013-05-02 22:17:00,48.7,27.3,30.56,NE,53,0.0,0.0,43,0.00,,,0.00,VWS V12.08,2013-05-03 02:17:00,
2013-05-02 22:26:00,48.4,26.9,30.56,NE,53,0.0,0.0,43,0.00,,,0.00,VWS V12.08,2013-05-03 02:26:00,
2013-05-02 22:31:00,48.2,26.8,30.56,NE,53,0.0,0.0,43,0.00,,,0.00,VWS V12.08,2013-05-03 02:31:00,
2013-05-02 22:40:00,48.2,26.8,30.56,NE,53,0.0,0.0,43,0.00,,,0.00,VWS V12.08,2013-05-03 02:40:00,
2013-05-02 22:46:00,48.0,27.2,30.56,NE,53,0.0,0.0,44,0.00,,,0.00,VWS V12.08,2013-05-03 02:46:00,
2013-05-02 22:55:00,48.0,27.2,30.56,NE,53,0.0,0.0,44,0.00,,,0.00,VWS V12.08,2013-05-03 02:55:00,
2013-05-02 23:04:00,48.0,27.2,30.56,NE,53,0.0,0.0,44,0.00,,,0.00,VWS V12.08,2013-05-03 03:04:00,
2013-05-02 23:10:00,47.7,26.8,30.56,NE,53,0.0,0.0,44,0.00,,,0.00,VWS V12.08,2013-05-03 03:10:00,
2013-05-02 23:15:00,47.5,26.7,30.56,NE,53,0.0,0.0,44,0.00,,,0.00,VWS V12.08,2013-05-03 03:15:00,
2013-05-02 23:25:00,47.1,26.3,30.56,NE,53,0.0,0.0,44,0.00,,,0.00,VWS V12.08,2013-05-03 03:25:00,
2013-05-02 23:30:00,47.1,26.3,30.56,NE,53,0.0,0.0,44,0.00,,,0.00,VWS V12.08,2013-05-03 03:30:00,
2013-05-02 23:40:00,46.8,26.0,30.56,NE,53,0.0,0.0,44,0.00,,,0.00,VWS V12.08,2013-05-03 03:40:00,
2013-05-02 23:45:00,46.6,25.9,30.56,NE,53,0.0,0.0,44,0.00,,,0.00,VWS V12.08,2013-05-03 03:45:00,
2013-05-02 23:55:00,46.6,26.4,30.56,NE,53,0.0,0.0,45,0.00,,,0.00,VWS V12.08,2013-05-03 03:55:00,